Regional Weather Roundup
Issued by NWS

Home | Current Version | Previous Version | Graphics & Text | Print | Product List | Glossary On
Versions: 1 2 3 4 5 6 7 8 9 10 11 12 13 14 15 16 17 18 19 20 21 22 23 24 25 26 27 28 29 30 31 32 33 34 35 36 37 38 39 40 41 42 43 44 45 46 47 48 49 50
000
ASUS43 KOAX 252210
RWRNE

WEATHER ROUNDUP FOR NEBRASKA
NATIONAL WEATHER SERVICE OMAHA NE
500 PM CDT SUN JUN 25 2017

NOTES: SATELLITE DATA IS BEING USED TO AUGMENT CLOUD COVER ABOVE
       12000 FEET.
       "FAIR" INDICATES FEW OR NO CLOUDS BELOW 12,000 FEET WITH NO
       SIGNIFICANT WEATHER AND/OR OBSTRUCTIONS TO VISIBILITY.

  * THESE STATIONS DO NOT REPORT WEATHER SUCH AS RAIN...SNOW OR FOG.

NEZ001>004-019>022-054>056-252300-
NEBRASKA PANHANDLE

CITY           SKY/WX    TMP DP  RH WIND       PRES   REMARKS
SCOTTSBLUFF    MOSUNNY   78  42  27 VRB6      30.26F
ALLIANCE       PTSUNNY   78  38  23 VRB6      30.25F
CHADRON        PTSUNNY   80  39  23 E6        30.21F
GORDON         MOCLDY    76  41  27 SW6       30.23F
KIMBALL        PTSUNNY   68  50  52 S6        30.32F
SIDNEY         MOSUNNY   72  49  44 SE8       30.31F
$$

NEZ057>060-069>072-079>082-252300-
SOUTHWEST NEBRASKA

CITY           SKY/WX    TMP DP  RH WIND       PRES   REMARKS
NORTH PLATTE   SUNNY     78  46  32 VRB6      30.26F
IMPERIAL       PTSUNNY   68  51  54 S14       30.30F
LEXINGTON      SUNNY     75  44  32 S10       30.28F
MCCOOK         MOSUNNY   71  47  42 S14G25    30.29F
OGALLALA       SUNNY     77  44  30 SE14      30.28F
$$

NEZ005>010-023>029-035>040-094-252300-
NORTH CENTRAL NEBRASKA

CITY           SKY/WX    TMP DP  RH WIND       PRES   REMARKS
VALENTINE      PTSUNNY   79  32  18 W9G20     30.22F
AINSWORTH      PTSUNNY   77  39  25 NW8       30.24F
BROKEN BOW     PTSUNNY   77  39  25 SE6       30.26F
O`NEILL        SUNNY     76  38  26 SW7       30.26S
ORD            SUNNY     77  33  20 CALM      30.24F
THEDFORD       PTSUNNY   76  38  24 W8        30.26F
$$

NEZ041-046>049-061>064-073>077-083>087-252300-
SOUTH CENTRAL NEBRASKA

CITY           SKY/WX    TMP DP  RH WIND       PRES   REMARKS
GRAND ISLAND   SUNNY     75  39  27 SE9       30.27F
AURORA         SUNNY     76  39  26 NW3       30.27F
HASTINGS       SUNNY     75  41  29 VRB5      30.29F
HEBRON         SUNNY     74  47  38 SW7       30.28F
HOLDREGE       SUNNY     70  45  39 S10G16    30.29F
KEARNEY *      SUNNY     75  39  27 CALM      30.28F
YORK           SUNNY     75  39  27 CALM      30.27F
$$

NEZ011>018-030>034-042>045-252300-
NORTHEAST NEBRASKA

CITY           SKY/WX    TMP DP  RH WIND       PRES   REMARKS
NORFOLK        SUNNY     75  40  28 N12       30.25F
ALBION         SUNNY     76  33  20 CALM      30.26F
BLAIR          SUNNY     75  42  30 NW12      30.25S
FREMONT        SUNNY     75  41  29 NW8       30.26S
TEKAMAH        SUNNY     76  36  23 NW8       30.23F
WAYNE          SUNNY     74  38  27 NW12      30.25F
$$

NEZ050>053-065>068-078-088>093-252300-
SOUTHEAST NEBRASKA

CITY           SKY/WX    TMP DP  RH WIND       PRES   REMARKS
LINCOLN        SUNNY     78  41  26 NW8       30.26F
OMAHA EPPLEY   MOSUNNY   77  41  27 NW12G20   30.24F
BEATRICE       SUNNY     77  41  27 NW5       30.26F
FALLS CITY     SUNNY     76  47  35 NW8       30.25F
NEBRASKA CITY  SUNNY     75  45  33 N10       30.26F
PLATTSMOUTH    SUNNY     74  40  29 NW8       30.25F
$$

NEZ044-045-051>053-067-252300-
OMAHA AREA

CITY           SKY/WX    TMP DP  RH WIND       PRES   REMARKS
OMAHA EPPLEY   MOSUNNY   77  41  27 NW12G20   30.24F
BLAIR          SUNNY     75  42  30 NW12      30.25S
FREMONT        SUNNY     75  41  29 NW8       30.26S
MILLARD        SUNNY     77  44  31 N6        30.25S
OFFUTT AFB     SUNNY     75  42  29 N5        30.24F
PLATTSMOUTH    SUNNY     74  40  29 NW8       30.25F
WAHOO          FAIR      76  38  25 N3        30.25F
$$




USA.gov is the U.S. government's official web portal to all federal, state and local government web resources and services.